Date String (YYYY-MM-DD hh:mm:ss) UTC,Instrument flags,absolute air pressure of the measurement (hPa),sample flow rate (lpm),inlet stack bypass flow (lpm),air temperature of the measurement (°C),ambient temperature measured by the external sensor (°C),aerosol sample conditioner tube jacket temperature (°C),OPC LED temperature (°C),internal box temperature (°C),relative humidity of the measurement (%),span deviation,mass concentration of particles derived from Lorenz-Mie calculation of OPC scattering (μg/m³),mass concentration of particles derived from Lorenz-Mie calculation of OPC scattering (μg/m³),mass concentration of particles derived from Lorenz-Mie calculation of OPC scattering (μg/m³)
DateTimeUTC,F1_M11,P_M11,Q1_M11,Q2_M11,T1_M11,T2_M11,T3_M11,T4_M11,T5_M11,U1_M11,ZSPAN_M11,X0_M11,X2_M11,X1_M11
2023-09-27 16:00:00,SystemResetWarning,0832.6,5.01,000.00,028.7,024.8,000.0,037.1,030.3,19.3,-000.1,0020.32,0006.19,0004.70
2023-09-27 16:01:00,SystemResetWarning,0832.6,5.00,000.00,028.6,025.1,000.0,037.1,030.1,19.2,0000.0,0020.68,0006.21,0004.69
2023-09-27 16:02:00,SystemResetWarning,0832.5,4.99,000.00,028.6,025.4,000.0,037.1,030.1,19.3,0000.0,0021.20,0006.24,0004.69
2023-09-27 16:03:00,SystemResetWarning,0832.5,5.01,000.00,028.5,025.7,000.0,037.1,030.1,19.5,0000.0,0021.65,0006.16,0004.69
2023-09-27 16:04:00,SystemResetWarning,0832.5,5.00,000.00,028.5,026.1,000.0,037.1,030.1,19.3,0000.0,0021.85,0006.15,0004.69
2023-09-27 16:05:00,SystemResetWarning,0832.5,5.01,000.00,028.5,026.4,000.0,037.1,030.2,19.2,0000.0,0021.61,0006.16,0004.69
2023-09-27 16:06:00,SystemResetWarning,0832.5,5.00,000.00,028.5,026.6,000.0,037.1,030.2,19.0,0000.0,0020.85,0006.12,0004.69
2023-09-27 16:07:00,SystemResetWarning,0832.5,5.00,000.00,028.6,026.8,000.0,037.1,030.3,18.6,0000.0,0020.80,0006.05,0004.68
2023-09-27 16:08:00,SystemResetWarning,0832.5,5.00,000.00,028.6,027.0,000.0,037.1,030.3,18.5,0000.0,0021.03,0006.03,0004.68
2023-09-27 16:09:00,SystemResetWarning,0832.5,5.00,000.00,028.6,027.2,000.0,037.1,030.3,18.8,0000.3,0020.56,0006.05,0004.68
2023-09-27 16:10:00,SystemResetWarning,0832.5,4.99,000.00,028.6,027.3,000.0,037.1,030.4,18.6,0000.0,0021.02,0006.10,0004.69
2023-09-27 16:11:00,SystemResetWarning,0832.5,5.00,000.00,028.7,027.4,000.0,037.1,030.4,18.5,0000.0,0020.49,0006.13,0004.71
2023-09-27 16:12:00,SystemResetWarning,0832.5,5.00,000.00,028.7,027.5,000.0,037.1,030.5,18.5,0000.0,0021.35,0006.25,0004.72
2023-09-27 16:13:00,SystemResetWarning,0832.5,5.00,000.00,028.7,027.6,000.0,037.1,030.5,18.4,0000.0,0021.01,0006.24,0004.72
2023-09-27 16:14:00,SystemResetWarning,0832.6,5.00,000.00,028.8,027.7,000.0,037.2,030.6,18.5,0000.0,0020.26,0006.24,0004.72
2023-09-27 16:15:00,SystemResetWarning,0832.5,5.00,000.00,028.8,027.6,000.0,037.2,030.6,18.6,0000.0,0019.59,0006.26,0004.71
2023-09-27 16:16:00,SystemResetWarning,0832.5,4.99,000.00,028.8,026.1,000.0,037.1,030.5,18.6,0000.0,0019.65,0006.29,0004.70
2023-09-27 16:17:00,SystemResetWarning,0832.4,5.01,000.00,028.7,024.8,000.0,037.0,030.3,18.7,0000.0,0020.62,0006.27,0004.70
2023-09-27 16:18:00,SystemResetWarning,0832.4,5.01,000.00,028.6,024.8,000.0,037.0,030.2,18.8,0000.0,0020.44,0006.32,0004.69
2023-09-27 16:19:00,SystemResetWarning,0832.3,5.00,000.00,028.6,025.1,000.0,037.0,030.1,18.9,0000.0,0020.51,0006.38,0004.69
2023-09-27 16:20:00,SystemResetWarning,0832.3,4.99,000.00,028.5,025.5,000.0,037.0,030.1,19.1,0000.0,0020.71,0006.45,0004.68
2023-09-27 16:21:00,SystemResetWarning,0832.3,5.00,000.00,028.5,025.8,000.0,037.0,030.1,19.6,0000.3,0019.76,0006.43,0004.68
2023-09-27 16:22:00,SystemResetWarning,0832.3,5.01,000.00,028.5,026.1,000.0,037.0,030.1,19.8,0002.1,0020.96,0006.45,0004.68
2023-09-27 16:23:00,SystemResetWarning,0832.3,5.00,000.00,028.5,026.4,000.0,037.0,030.2,19.4,0002.0,0019.60,0006.40,0004.69
2023-09-27 16:24:00,SystemResetWarning,0832.3,5.00,000.00,028.5,026.7,000.0,037.0,030.2,19.8,0001.7,0020.87,0006.40,0004.69
2023-09-27 16:25:00,SystemResetWarning,0832.3,5.00,000.00,028.5,026.9,000.0,037.0,030.3,20.4,0001.0,0021.11,0006.45,0004.69
2023-09-27 16:26:00,SystemResetWarning,0832.3,5.00,000.00,028.6,027.1,000.0,037.0,030.3,20.2,0001.7,0020.92,0006.45,0004.69
2023-09-27 16:27:00,SystemResetWarning,0832.3,5.00,000.00,028.6,027.2,000.0,037.1,030.4,19.7,0002.3,0020.46,0006.32,0004.71
2023-09-27 16:28:00,SystemResetWarning,0832.3,5.00,000.00,028.6,027.3,000.0,037.1,030.4,19.5,0002.8,0019.16,0006.26,0004.72
2023-09-27 16:29:00,SystemResetWarning,0832.3,5.00,000.00,028.7,027.5,000.0,037.1,030.5,20.2,0002.7,0018.84,0006.27,0004.73
2023-09-27 16:30:00,SystemResetWarning,0832.3,5.00,000.00,028.7,027.6,000.0,037.1,030.5,20.3,0002.8,0018.08,0006.22,0004.74
2023-09-27 16:31:00,SystemResetWarning,0832.3,4.99,000.00,028.7,027.5,000.0,037.1,030.6,20.3,0003.0,0017.22,0006.18,0004.75
2023-09-27 16:32:00,SystemResetWarning,0832.3,5.00,000.00,028.7,026.2,000.0,037.1,030.5,20.4,0003.2,0016.58,0006.20,0004.75
2023-09-27 16:33:00,SystemResetWarning,0832.2,5.00,000.00,028.6,024.9,000.0,037.0,030.2,20.5,0002.3,0015.52,0006.24,0004.76
2023-09-27 16:34:00,SystemResetWarning,0832.2,5.01,000.00,028.6,024.9,000.0,037.0,030.2,20.8,0002.7,0016.02,0006.22,0004.76
2023-09-27 16:35:00,SystemResetWarning,0832.2,5.01,000.00,028.5,025.2,000.0,037.0,030.0,20.9,0000.4,0015.64,0006.26,0004.78
2023-09-27 16:36:00,SystemResetWarning,0832.2,5.00,000.00,028.5,025.5,000.0,037.0,030.0,20.7,0000.0,0015.22,0006.26,0004.79
2023-09-27 16:37:00,SystemResetWarning,0832.2,4.99,000.00,028.4,025.9,000.0,037.0,030.0,20.6,0000.0,0015.96,0006.31,0004.82
2023-09-27 16:38:00,SystemResetWarning,0832.2,5.01,000.00,028.4,026.2,000.0,037.0,030.1,20.8,0002.1,0015.85,0006.39,0004.83
2023-09-27 16:39:00,SystemResetWarning,0832.2,5.01,000.00,028.5,026.5,000.0,037.0,030.2,21.1,0000.4,0016.39,0006.48,0004.85
2023-09-27 16:40:00,SystemResetWarning,0832.2,5.00,000.00,028.5,026.7,000.0,037.0,030.2,20.7,0000.0,0016.58,0006.46,0004.85
2023-09-27 16:41:00,SystemResetWarning,0832.2,5.00,000.00,028.5,026.9,000.0,037.0,030.3,20.7,0000.0,0017.14,0006.48,0004.86
2023-09-27 16:42:00,SystemResetWarning,0832.2,5.00,000.00,028.5,027.1,000.0,037.0,030.3,20.4,0000.0,0018.34,0006.46,0004.88
2023-09-27 16:43:00,SystemResetWarning,0832.2,5.00,000.00,028.6,027.3,000.0,037.0,030.4,20.3,0000.0,0019.70,0006.42,0004.90
2023-09-27 16:44:00,SystemResetWarning,0832.2,5.00,000.00,028.6,027.4,000.0,037.0,030.4,19.8,0000.0,0020.56,0006.38,0004.90
2023-09-27 16:45:00,SystemResetWarning,0832.2,5.00,000.00,028.6,027.5,000.0,037.0,030.5,19.7,0000.0,0020.16,0006.38,0004.92
2023-09-27 16:46:00,SystemResetWarning,0832.2,4.98,000.00,028.7,026.7,000.0,037.0,030.5,19.2,0000.0,0019.13,0006.32,0004.91
2023-09-27 16:47:00,SystemResetWarning,0832.2,5.01,000.00,028.6,025.1,000.0,037.0,030.3,19.1,0000.0,0019.03,0006.34,0004.92
2023-09-27 16:48:00,SystemResetWarning,0832.2,5.01,000.00,028.5,024.8,000.0,036.9,030.2,19.2,0000.0,0018.49,0006.37,0004.92
2023-09-27 16:49:00,SystemResetWarning,0832.1,4.99,000.00,028.5,025.0,000.0,036.9,030.0,18.5,0000.0,0019.11,0006.41,0004.92
2023-09-27 16:50:00,SystemResetWarning,0832.1,4.99,000.00,028.4,025.3,000.0,036.9,030.0,19.0,0000.0,0019.51,0006.39,0004.91
2023-09-27 16:51:00,SystemResetWarning,0832.1,5.00,000.00,028.4,025.7,000.0,036.9,030.0,19.5,0000.0,0019.98,0006.43,0004.93
2023-09-27 16:52:00,SystemResetWarning,0832.0,5.01,000.00,028.4,026.1,000.0,036.9,030.1,19.2,0000.0,0020.32,0006.45,0004.94
2023-09-27 16:53:00,SystemResetWarning,0832.1,5.01,000.00,028.4,026.4,000.0,036.9,030.1,19.0,0000.0,0020.07,0006.47,0004.94
2023-09-27 16:54:00,SystemResetWarning,0832.1,5.00,000.00,028.4,026.6,000.0,036.9,030.2,19.5,0001.1,0019.37,0006.54,0004.94
2023-09-27 16:55:00,SystemResetWarning,0832.1,4.99,000.00,028.4,026.9,000.0,036.9,030.2,18.8,0001.3,0018.94,0006.59,0004.93
2023-09-27 16:56:00,SystemResetWarning,0832.0,4.99,000.00,028.5,027.1,000.0,036.9,030.3,18.7,0000.0,0019.59,0006.62,0004.92
2023-09-27 16:57:00,SystemResetWarning,0832.0,5.00,000.00,028.5,027.2,000.0,037.0,030.3,18.4,0000.0,0019.10,0006.62,0004.92
2023-09-27 16:58:00,SystemResetWarning,0832.0,5.01,000.00,028.5,027.4,000.0,037.0,030.4,19.0,0000.3,0018.82,0006.51,0004.91
2023-09-27 16:59:00,SystemResetWarning,0832.0,5.01,000.00,028.6,027.5,000.0,037.0,030.5,18.5,0000.8,0019.46,0006.44,0004.91
